SL-14 DEB

Satellite information

Favourite Embed

Satellite Type and Status

DEBRISIN ORBIT

Key statistics

Satellite SL-14 DEB at a glance.

Uptime

13839

Days in orbit

Revolutions

≈ 14.0

Per day

Orbit

LEO

Low Earth Orbit

Inclination

82.4

Latest

Satellite identification and parameters

Extended collection of information and parameters for SL-14 DEB.

Object identification

Identified? True

Debris? True

Object name: SL-14 DEB

International designator: 1987-068AF

Object number (NORAD): 25204

Object ID (CCSDS): 25204

Country: COMMONWEALTH OF INDEPENDENT STATES (CIS)

Current information (Y/N): Y

RCS size: SMALL

Orbital parameters

Period: 102.622 minutes

Inclination: 82.426 deg

SMA: 7260.831 km

Apoapsis: 958.473 km

Periapsis: 806.918 km

RAAN: 91.6089 deg

Eccentricy: 0.0104365

Argument of periapsis: 122.0673 deg

Mean anomaly: 357.6193 deg

Mean motion: 14.03212063 rev/day

Mean motion (dot): 0.00002417 rev/day2

B* drag term: 0.0014688 1/REarth

Two-line elements (TLE)

Creation date: July 6, 2025, 6:05 p.m.

Reference frame: TEME

Reference center: EARTH

Epoch: July 6, 2025, 4:41 a.m. UTC

TLE line 0: 0 SL-14 DEB

TLE line 1: 1 25204U 87068AF 25187.19576289 .00002417 00000-0 14688-2 0 9995

TLE line 2: 2 25204 82.4260 91.6089 0104365 122.0673 357.6193 14.03212063382076

Live tracking on map

Real-time ground track for satellite SL-14 DEB.

In-orbit conjunctions

A list of the most updated potential collisions computed for object SL-14 DEB.

Target Orbit TCA Probability of collision Miss distance Type
SL-8 R/B LEO 2024-10-08 12:01:43 0.0005333437 216.0 (m) ROCKET BODY
COSMOS 2026 LEO 2024-08-15 02:51:17 0.0002251425 284.0 (m) PAYLOAD
FENGYUN 1C DEB SSO 2024-06-23 17:17:35 0.0005546161 80.0 (m) DEBRIS

Associated space launch

Second generation soviet meteorological satellite

SL-14 DEB was lifted into orbit during the mission ‘Tsiklon-3 | Meteor-2 16’, on board a Tsiklon-3 space rocket.

The launch took place on Aug. 18, 1987, 2:27 a.m. from 32/1.

For more information about the launch, click the button.

Launch to space Tsiklon-3 | Meteor-2 16
Tsiklon-3 | Meteor-2 16

Agency: N/A

Status: Launch Successful

Launch date: Aug. 18, 1987, 2:27 a.m. UTC

Rocket: Tsiklon-3

Launch pad: 32/1

Location: Plesetsk Cosmodrome, Russian Federation

...

Latest news about this satellite

There are no fresh news available about this satellite. Check back as we update our databases every day.


Newsletter sign-up

Weekly statistics, charts and insights to help you stay on top of the space industry.